Radiation Dose at Monitoring Post of Fukushima Daini Nuclear Power Station
Date,Time,MP-1(microSv/h),MP-2(microSv/h),MP-3(microSv/h),MP-4(microSv/h),MP-5(microSv/h),MP-6(microSv/h),MP-7(microSv/h),Wind Direction,Wind Velocity(m/s),Rain
2017/12/16,00:00,0.339,0.207,0.346,0.322,0.313,0.174,0.103,-,CALM,No
2017/12/16,00:10,0.340,0.207,0.344,0.323,0.312,0.172,0.103,-,CALM,No
2017/12/16,00:20,0.340,0.208,0.346,0.321,0.313,0.172,0.103,north-northwest,0.9,No
2017/12/16,00:30,0.338,0.208,0.345,0.322,0.314,0.173,0.103,-,CALM,No
2017/12/16,00:40,0.341,0.208,0.345,0.322,0.313,0.172,0.104,-,CALM,No
2017/12/16,00:50,0.339,0.208,0.346,0.321,0.312,0.173,0.103,-,CALM,No
2017/12/16,01:00,0.338,0.207,0.346,0.322,0.313,0.173,0.104,north,1.1,No
2017/12/16,01:10,0.339,0.207,0.345,0.321,0.313,0.173,0.103,north-northeast,0.7,No
2017/12/16,01:20,0.340,0.207,0.345,0.321,0.312,0.173,0.104,north-northeast,0.8,No
2017/12/16,01:30,0.340,0.209,0.345,0.323,0.313,0.172,0.103,north-northeast,0.9,No
2017/12/16,01:40,0.339,0.209,0.347,0.322,0.313,0.174,0.103,-,CALM,No
2017/12/16,01:50,0.340,0.207,0.346,0.321,0.313,0.173,0.103,northeast,0.6,No
2017/12/16,02:00,0.339,0.208,0.345,0.322,0.314,0.172,0.102,-,CALM,No
2017/12/16,02:10,0.337,0.206,0.343,0.323,0.312,0.173,0.103,north,0.6,No
2017/12/16,02:20,0.339,0.206,0.346,0.322,0.313,0.173,0.103,-,CALM,No
2017/12/16,02:30,0.339,0.207,0.345,0.321,0.312,0.172,0.103,-,CALM,No
2017/12/16,02:40,0.340,0.207,0.344,0.321,0.314,0.173,0.104,-,CALM,No
2017/12/16,02:50,0.339,0.208,0.345,0.322,0.313,0.173,0.103,-,CALM,No
2017/12/16,03:00,0.339,0.207,0.346,0.322,0.311,0.172,0.103,west,0.8,No
2017/12/16,03:10,0.339,0.207,0.344,0.322,0.313,0.174,0.102,west-northwest,0.9,No
2017/12/16,03:20,0.341,0.208,0.344,0.322,0.313,0.172,0.102,west-southwest,2.4,No
2017/12/16,03:30,0.339,0.207,0.344,0.321,0.313,0.173,0.103,west-southwest,3.8,No
2017/12/16,03:40,0.338,0.206,0.345,0.322,0.313,0.172,0.103,west-southwest,4.4,No
2017/12/16,03:50,0.339,0.205,0.345,0.323,0.314,0.173,0.103,west,3.9,No
2017/12/16,04:00,0.341,0.208,0.345,0.321,0.314,0.173,0.103,west-southwest,2.6,No
2017/12/16,04:10,0.339,0.207,0.344,0.322,0.312,0.174,0.102,southwest,4.1,No
2017/12/16,04:20,0.340,0.207,0.344,0.322,0.312,0.174,0.104,west-southwest,5.7,No
2017/12/16,04:30,0.338,0.207,0.346,0.321,0.313,0.172,0.103,southwest,5.8,No
2017/12/16,04:40,0.339,0.207,0.345,0.321,0.312,0.174,0.104,west-southwest,5.4,No
2017/12/16,04:50,0.340,0.206,0.344,0.321,0.313,0.173,0.104,west-southwest,5.9,No
2017/12/16,05:00,0.340,0.207,0.346,0.323,0.313,0.173,0.104,west-southwest,5.5,No
2017/12/16,05:10,0.339,0.207,0.346,0.322,0.313,0.173,0.103,west-southwest,5.5,No
2017/12/16,05:20,0.341,0.209,0.345,0.321,0.313,0.173,0.103,west-southwest,6.2,No
2017/12/16,05:30,0.340,0.208,0.345,0.321,0.312,0.173,0.103,west-southwest,5.6,No
2017/12/16,05:40,0.339,0.208,0.346,0.321,0.313,0.172,0.103,west-southwest,7.0,No
2017/12/16,05:50,0.339,0.207,0.344,0.322,0.314,0.173,0.103,southwest,6.4,No
2017/12/16,06:00,0.340,0.207,0.344,0.321,0.313,0.172,0.103,southwest,7.0,No
2017/12/16,06:10,0.339,0.207,0.344,0.322,0.313,0.174,0.103,southwest,6.0,No
2017/12/16,06:20,0.339,0.208,0.345,0.321,0.312,0.173,0.103,southwest,4.6,No
2017/12/16,06:30,0.339,0.206,0.345,0.321,0.314,0.173,0.103,southwest,5.1,No
2017/12/16,06:40,0.338,0.208,0.345,0.320,0.314,0.173,0.104,south-southwest,4.4,No
2017/12/16,06:50,0.342,0.208,0.344,0.321,0.313,0.172,0.103,south-southwest,5.2,No
2017/12/16,07:00,0.339,0.208,0.344,0.322,0.313,0.172,0.104,southwest,5.6,No
2017/12/16,07:10,0.339,0.207,0.346,0.323,0.314,0.173,0.103,southwest,2.6,No
2017/12/16,07:20,0.339,0.208,0.344,0.321,0.314,0.173,0.104,west-southwest,3.2,No
2017/12/16,07:30,0.339,0.207,0.345,0.322,0.313,0.173,0.103,southwest,4.8,No
2017/12/16,07:40,0.339,0.207,0.347,0.323,0.313,0.172,0.103,southwest,5.1,No
2017/12/16,07:50,0.338,0.208,0.345,0.322,0.314,0.172,0.103,west-southwest,4.2,No
2017/12/16,08:00,0.338,0.207,0.346,0.321,0.314,0.173,0.104,southwest,4.3,No
2017/12/16,08:10,0.339,0.209,0.346,0.322,0.313,0.173,0.103,southwest,3.1,No
2017/12/16,08:20,0.340,0.207,0.346,0.321,0.314,0.173,0.103,west,3.9,No
2017/12/16,08:30,0.338,0.207,0.345,0.321,0.314,0.172,0.102,west,3.1,No
2017/12/16,08:40,0.341,0.208,0.345,0.320,0.313,0.173,0.103,west,2.4,No
2017/12/16,08:50,0.340,0.207,0.345,0.321,0.313,0.172,0.103,west,2.4,No
2017/12/16,09:00,0.340,0.207,0.345,0.320,0.312,0.173,0.103,west-northwest,2.7,No
2017/12/16,09:10,0.339,0.208,0.345,0.320,0.313,0.172,0.103,west,1.9,No
2017/12/16,09:20,0.339,0.208,0.344,0.319,0.313,0.172,0.103,west-southwest,3.1,No
2017/12/16,09:30,0.338,0.206,0.344,0.322,0.312,0.171,0.104,west,2.8,No
2017/12/16,09:40,0.338,0.207,0.344,0.318,0.313,0.173,0.102,west,5.0,No
2017/12/16,09:50,0.339,0.206,0.344,0.322,0.312,0.172,0.103,south-southwest,4.1,No
2017/12/16,10:00,0.338,0.204,0.346,0.321,0.315,0.172,0.102,south,5.6,No
2017/12/16,10:10,0.338,0.207,0.344,0.321,0.314,0.173,0.103,south,4.3,No
2017/12/16,10:20,0.338,0.206,0.344,0.321,0.312,0.173,0.103,south-southeast,3.8,No
2017/12/16,10:30,0.338,0.208,0.345,0.322,0.314,0.172,0.103,south-southeast,4.3,No
2017/12/16,10:40,0.337,0.206,0.345,0.322,0.314,0.173,0.102,southeast,4.2,No
2017/12/16,10:50,0.337,0.207,0.344,0.321,0.312,0.173,0.103,east-southeast,3.2,No
2017/12/16,11:00,0.338,0.206,0.345,0.322,0.314,0.173,0.103,southwest,1.1,No
2017/12/16,11:10,0.337,0.207,0.346,0.320,0.311,0.173,0.103,west,8.1,No
2017/12/16,11:20,0.338,0.207,0.345,0.322,0.312,0.172,0.103,west,5.2,No
2017/12/16,11:30,0.338,0.206,0.344,0.322,0.311,0.173,0.103,west,5.2,No
2017/12/16,11:40,0.337,0.207,0.345,0.323,0.315,0.173,0.102,west,3.4,No
2017/12/16,11:50,0.338,0.208,0.343,0.319,0.311,0.174,0.102,west,3.4,No
2017/12/16,12:00,0.338,0.207,0.343,0.322,0.315,0.172,0.103,west,2.4,No
2017/12/16,12:10,0.338,0.206,0.344,0.320,0.313,0.173,0.103,west-southwest,1.2,No
2017/12/16,12:20,0.335,0.206,0.344,0.320,0.313,0.173,0.103,southwest,2.5,No
2017/12/16,12:30,0.339,0.207,0.344,0.322,0.314,0.173,0.103,south-southwest,4.3,No
2017/12/16,12:40,0.337,0.207,0.344,0.320,0.311,0.174,0.103,south-southwest,4.5,No
2017/12/16,12:50,0.337,0.207,0.344,0.324,0.315,0.174,0.102,south-southwest,5.6,No
2017/12/16,13:00,0.337,0.206,0.343,0.320,0.313,0.173,0.102,south,7.0,No
2017/12/16,13:10,0.338,0.206,0.344,0.323,0.316,0.173,0.103,south,6.7,No
2017/12/16,13:20,0.340,0.207,0.344,0.320,0.315,0.174,0.103,south,4.0,No
2017/12/16,13:30,0.338,0.207,0.344,0.323,0.315,0.173,0.103,south,4.9,No
2017/12/16,13:40,0.338,0.208,0.343,0.321,0.315,0.173,0.102,south,4.8,No
2017/12/16,13:50,0.339,0.206,0.346,0.323,0.313,0.173,0.103,south,4.9,No
2017/12/16,14:00,0.339,0.207,0.344,0.321,0.312,0.174,0.103,south,2.8,No
2017/12/16,14:10,0.340,0.208,0.346,0.322,0.315,0.173,0.103,south,1.5,No
2017/12/16,14:20,0.337,0.208,0.344,0.323,0.312,0.173,0.104,south-southeast,1.9,No
2017/12/16,14:30,0.340,0.206,0.346,0.324,0.315,0.172,0.103,south,2.3,No
2017/12/16,14:40,0.338,0.208,0.344,0.322,0.314,0.173,0.103,south,4.8,No
2017/12/16,14:50,0.338,0.207,0.346,0.323,0.313,0.172,0.103,south,2.4,No
2017/12/16,15:00,0.338,0.209,0.345,0.324,0.315,0.173,0.102,-,CALM,No
2017/12/16,15:10,0.338,0.208,0.345,0.321,0.314,0.172,0.103,south-southwest,0.9,No
2017/12/16,15:20,0.339,0.207,0.345,0.322,0.316,0.173,0.102,-,CALM,No
2017/12/16,15:30,0.339,0.207,0.345,0.321,0.314,0.172,0.103,south-southeast,0.7,No
2017/12/16,15:40,0.339,0.207,0.345,0.322,0.314,0.173,0.103,south,1.8,No
2017/12/16,15:50,0.339,0.207,0.344,0.323,0.314,0.173,0.103,-,CALM,No
2017/12/16,16:00,0.339,0.208,0.344,0.321,0.314,0.172,0.102,south,1.3,No
2017/12/16,16:10,0.338,0.207,0.346,0.323,0.315,0.173,0.103,south-southwest,0.7,No
2017/12/16,16:20,0.338,0.206,0.344,0.323,0.314,0.174,0.103,south,1.1,No
2017/12/16,16:30,0.338,0.207,0.344,0.322,0.314,0.174,0.103,north,0.6,No
2017/12/16,16:40,0.339,0.207,0.344,0.323,0.315,0.174,0.103,north,3.8,No
2017/12/16,16:50,0.341,0.206,0.346,0.322,0.313,0.175,0.103,north-northeast,6.2,No
2017/12/16,17:00,0.339,0.207,0.345,0.322,0.316,0.174,0.103,north-northeast,7.0,No
2017/12/16,17:10,0.339,0.207,0.345,0.323,0.314,0.174,0.105,north,5.0,No
2017/12/16,17:20,0.339,0.206,0.345,0.323,0.314,0.173,0.103,north-northwest,4.5,No
2017/12/16,17:30,0.339,0.207,0.344,0.322,0.312,0.174,0.104,north-northwest,4.9,No
2017/12/16,17:40,0.339,0.208,0.345,0.324,0.316,0.173,0.103,north,5.1,No
2017/12/16,17:50,0.340,0.206,0.346,0.323,0.314,0.174,0.103,north-northwest,5.6,No
2017/12/16,18:00,0.338,0.209,0.344,0.323,0.315,0.174,0.103,north-northwest,4.3,No
2017/12/16,18:10,0.339,0.208,0.346,0.322,0.313,0.173,0.104,north-northwest,6.0,No
2017/12/16,18:20,0.341,0.207,0.345,0.323,0.314,0.174,0.104,north-northwest,3.9,No
2017/12/16,18:30,0.340,0.208,0.344,0.322,0.313,0.173,0.103,north,6.2,No
2017/12/16,18:40,0.339,0.209,0.346,0.325,0.313,0.174,0.103,north-northwest,4.4,No
2017/12/16,18:50,0.339,0.208,0.347,0.324,0.313,0.174,0.104,north-northwest,2.3,No
2017/12/16,19:00,0.341,0.208,0.345,0.322,0.314,0.173,0.103,north-northwest,3.4,No
2017/12/16,19:10,0.339,0.208,0.345,0.323,0.314,0.175,0.103,north-northwest,4.2,No
2017/12/16,19:20,0.340,0.208,0.347,0.323,0.313,0.173,0.104,northwest,2.3,No
2017/12/16,19:30,0.339,0.207,0.344,0.323,0.313,0.172,0.104,north-northwest,5.1,No
2017/12/16,19:40,0.340,0.208,0.347,0.323,0.314,0.173,0.103,north,5.6,No
2017/12/16,19:50,0.340,0.209,0.347,0.324,0.312,0.173,0.104,north,5.7,No
2017/12/16,20:00,0.339,0.208,0.347,0.324,0.313,0.174,0.103,north,6.0,No
2017/12/16,20:10,0.340,0.208,0.346,0.323,0.315,0.174,0.103,north-northwest,6.4,No
2017/12/16,20:20,0.341,0.209,0.345,0.324,0.314,0.174,0.104,north,6.0,No
2017/12/16,20:30,0.340,0.208,0.346,0.324,0.314,0.173,0.104,north,5.7,No
2017/12/16,20:40,0.340,0.209,0.348,0.324,0.314,0.173,0.104,north,5.5,No
2017/12/16,20:50,0.340,0.208,0.345,0.324,0.313,0.173,0.103,north-northwest,5.1,No
2017/12/16,21:00,0.338,0.209,0.344,0.322,0.314,0.173,0.104,northwest,5.2,No
2017/12/16,21:10,0.338,0.209,0.347,0.325,0.314,0.174,0.104,northwest,5.9,No
2017/12/16,21:20,0.340,0.208,0.345,0.323,0.314,0.173,0.104,west-northwest,4.8,No
2017/12/16,21:30,0.341,0.207,0.347,0.323,0.314,0.174,0.104,west-northwest,4.8,No
2017/12/16,21:40,0.340,0.208,0.346,0.323,0.313,0.173,0.104,west-northwest,7.7,No
2017/12/16,21:50,0.339,0.208,0.346,0.323,0.314,0.174,0.104,west-northwest,8.7,No
2017/12/16,22:00,0.340,0.209,0.348,0.325,0.314,0.173,0.103,west-northwest,4.4,No
2017/12/16,22:10,0.340,0.208,0.346,0.323,0.313,0.174,0.104,west-northwest,2.5,No
2017/12/16,22:20,0.338,0.208,0.345,0.324,0.314,0.174,0.104,northwest,2.9,No
2017/12/16,22:30,0.339,0.208,0.347,0.323,0.314,0.174,0.103,northwest,2.8,No
2017/12/16,22:40,0.341,0.207,0.346,0.322,0.313,0.174,0.103,west-northwest,4.4,No
2017/12/16,22:50,0.340,0.207,0.346,0.323,0.314,0.174,0.103,west,7.3,No
2017/12/16,23:00,0.338,0.207,0.346,0.324,0.314,0.173,0.104,west-northwest,8.4,No
2017/12/16,23:10,0.339,0.206,0.346,0.323,0.313,0.173,0.103,west,12.9,No
2017/12/16,23:20,0.342,0.207,0.346,0.323,0.312,0.174,0.103,west-northwest,12.1,No
2017/12/16,23:30,0.339,0.207,0.346,0.323,0.313,0.174,0.104,west-northwest,12.0,No
2017/12/16,23:40,0.338,0.207,0.347,0.324,0.314,0.174,0.103,west-northwest,12.5,No
2017/12/16,23:50,0.340,0.208,0.348,0.324,0.313,0.174,0.104,west-northwest,12.5,No
